When you browse on this site, cookies collect data to enhance your experience and personalize the content and advertising you see.
Visit our Privacy Policy to learn more. By continuing to use the site, you agree to this use of cookies and data.
  • In Lithuania
  • List of Countries
  • For 7 days
  • Water Temperature
  • Satellite Maps
  • Weather Map
  • Weather Widgets
  • user-avatar
    Login

    Hourly Weather Barany

    Today, 17 July, Wednesday

    Time Temperature Precipitation Wind Pressure Humidity
    00:00 +11°C° 0 mm 3 mps 742 mmHg 95%
    01:00 +10°C° 0 mm 3 mps 742 mmHg 96%
    02:00 +10°C° 0 mm 3 mps 742 mmHg 97%
    03:00 +10°C° 0 mm 3 mps 742 mmHg 97%
    04:00 +10°C° 0 mm 3 mps 742 mmHg 97%
    05:00 +9°C° 0 mm 3 mps 742 mmHg 97%
    06:00 +11°C° 0 mm 3 mps 742 mmHg 92%
    07:00 +12°C° 0 mm 3 mps 741 mmHg 88%
    08:00 +13°C° 0 mm 3 mps 741 mmHg 83%
    09:00 +14°C° 0.3 mm 3 mps 741 mmHg 79%
    10:00 +15°C° 0.3 mm 4 mps 742 mmHg 76%
    11:00 +17°C° 0.3 mm 4 mps 742 mmHg 72%
    12:00 +17°C° 0.4 mm 3 mps 741 mmHg 71%
    13:00 +18°C° 0.4 mm 3 mps 741 mmHg 70%
    14:00 +18°C° 0.4 mm 3 mps 741 mmHg 68%
    15:00 +18°C° 0.7 mm 3 mps 741 mmHg 72%
    16:00 +18°C° 0.7 mm 3 mps 741 mmHg 75%
    17:00 +18°C° 0.7 mm 3 mps 741 mmHg 78%
    18:00 +17°C° 0.5 mm 3 mps 741 mmHg 82%
    19:00 +16°C° 0.5 mm 3 mps 741 mmHg 86%
    20:00 +14°C° 0.5 mm 3 mps 741 mmHg 90%
    21:00 +13°C° 0 mm 3 mps 741 mmHg 91%
    22:00 +12°C° 0 mm 3 mps 741 mmHg 93%
    23:00 +12°C° 0 mm 3 mps 742 mmHg 95%

    Tomorrow, 18 July, Thursday

    Time Temperature Precipitation Wind Pressure Humidity
    00:00 +11°C° 0 mm 3 mps 742 mmHg 96%
    01:00 +11°C° 0 mm 3 mps 742 mmHg 97%
    02:00 +11°C° 0 mm 3 mps 742 mmHg 97%
    03:00 +11°C° 0 mm 3 mps 742 mmHg 97%
    04:00 +11°C° 0 mm 4 mps 742 mmHg 97%
    05:00 +11°C° 0 mm 4 mps 742 mmHg 98%
    06:00 +12°C° 0 mm 4 mps 742 mmHg 95%
    07:00 +13°C° 0 mm 4 mps 743 mmHg 93%
    08:00 +14°C° 0 mm 4 mps 743 mmHg 91%
    09:00 +15°C° 0.1 mm 5 mps 743 mmHg 86%
    10:00 +17°C° 0.1 mm 5 mps 743 mmHg 80%
    11:00 +19°C° 0.1 mm 5 mps 744 mmHg 75%
    12:00 +20°C° 0.8 mm 5 mps 744 mmHg 75%
    13:00 +20°C° 0.8 mm 6 mps 743 mmHg 75%
    14:00 +21°C° 0.8 mm 6 mps 743 mmHg 76%
    15:00 +21°C° 0.6 mm 6 mps 743 mmHg 75%
    16:00 +21°C° 0.6 mm 5 mps 743 mmHg 75%
    17:00 +21°C° 0.6 mm 5 mps 744 mmHg 74%
    18:00 +20°C° 0.1 mm 4 mps 744 mmHg 78%
    19:00 +18°C° 0.1 mm 4 mps 744 mmHg 82%
    20:00 +17°C° 0.1 mm 3 mps 744 mmHg 87%
    21:00 +16°C° 0 mm 3 mps 744 mmHg 89%
    22:00 +14°C° 0 mm 3 mps 745 mmHg 91%
    23:00 +13°C° 0 mm 3 mps 745 mmHg 93%

    Day after tomorrow, 19 July, Friday

    Time Temperature Precipitation Wind Pressure Humidity
    00:00 +13°C° 0 mm 3 mps 745 mmHg 93%
    01:00 +14°C° 0 mm 2 mps 745 mmHg 94%
    02:00 +13°C° 0 mm 2 mps 746 mmHg 94%
    03:00 +13°C° 0 mm 2 mps 746 mmHg 94%
    04:00 +13°C° 0 mm 2 mps 746 mmHg 95%
    05:00 +13°C° 0 mm 2 mps 746 mmHg 95%
    06:00 +14°C° 0 mm 2 mps 746 mmHg 90%
    07:00 +16°C° 0 mm 2 mps 746 mmHg 85%
    08:00 +18°C° 0 mm 2 mps 747 mmHg 80%
    09:00 +19°C° 0.1 mm 2 mps 747 mmHg 74%
    10:00 +21°C° 0.1 mm 2 mps 747 mmHg 68%
    11:00 +22°C° 0.1 mm 3 mps 747 mmHg 62%
    12:00 +24°C° 0 mm 3 mps 747 mmHg 58%
    13:00 +24°C° 0 mm 3 mps 747 mmHg 55%
    14:00 +25°C° 0 mm 3 mps 747 mmHg 51%
    15:00 +25°C° 0 mm 3 mps 747 mmHg 53%
    16:00 +24°C° 0 mm 3 mps 747 mmHg 56%
    17:00 +24°C° 0 mm 2 mps 747 mmHg 58%
    18:00 +23°C° 0.1 mm 2 mps 747 mmHg 65%
    19:00 +21°C° 0.1 mm 1 mps 747 mmHg 71%
    20:00 +20°C° 0.1 mm 1 mps 747 mmHg 78%
    21:00 +19°C° 0 mm 1 mps 747 mmHg 80%
    22:00 +16°C° 0 mm 0 mps 747 mmHg 82%
    23:00 +15°C° 0 mm 0 mps 748 mmHg 84%

    20 July, Saturday

    Time Temperature Precipitation Wind Pressure Humidity
    00:00 +14°C° 0 mm 0 mps 748 mmHg 85%
    01:00 +14°C° 0 mm 0 mps 748 mmHg 87%
    02:00 +14°C° 0 mm 0 mps 748 mmHg 88%
    03:00 +13°C° 0 mm 0 mps 748 mmHg 88%
    04:00 +13°C° 0 mm 0 mps 748 mmHg 88%
    05:00 +13°C° 0 mm 0 mps 748 mmHg 88%
    06:00 +15°C° 0 mm 0 mps 748 mmHg 84%
    07:00 +17°C° 0 mm 0 mps 748 mmHg 79%
    08:00 +19°C° 0 mm 0 mps 748 mmHg 75%
    09:00 +20°C° 0 mm 0 mps 749 mmHg 69%
    10:00 +22°C° 0 mm 0 mps 749 mmHg 63%
    11:00 +23°C° 0 mm 0 mps 749 mmHg 57%
    12:00 +24°C° 0 mm 0 mps 749 mmHg 54%
    13:00 +24°C° 0 mm 0 mps 749 mmHg 52%
    14:00 +27°C° 0 mm 1 mps 749 mmHg 49%
    15:00 +27°C° 0 mm 1 mps 749 mmHg 51%
    16:00 +26°C° 0 mm 1 mps 749 mmHg 54%
    17:00 +26°C° 0 mm 1 mps 749 mmHg 56%
    18:00 +24°C° 0 mm 1 mps 749 mmHg 63%
    19:00 +23°C° 0 mm 1 mps 749 mmHg 69%
    20:00 +21°C° 0 mm 1 mps 749 mmHg 75%
    21:00 +20°C° 0 mm 1 mps 749 mmHg 78%
    22:00 +19°C° 0 mm 1 mps 749 mmHg 82%
    23:00 +17°C° 0 mm 2 mps 750 mmHg 85%

    21 July, Sunday

    Time Temperature Precipitation Wind Pressure Humidity
    00:00 +18°C° 0 mm 1 mps 750 mmHg 86%
    01:00 +16°C° 0 mm 1 mps 750 mmHg 88%
    02:00 +16°C° 0 mm 1 mps 750 mmHg 89%
    03:00 +16°C° 0 mm 1 mps 750 mmHg 89%
    04:00 +16°C° 0 mm 1 mps 750 mmHg 89%
    05:00 +16°C° 0 mm 1 mps 750 mmHg 90%
    06:00 +18°C° 0 mm 1 mps 750 mmHg 84%
    07:00 +20°C° 0 mm 1 mps 750 mmHg 79%
    08:00 +22°C° 0 mm 1 mps 750 mmHg 73%
    09:00 +23°C° 0 mm 1 mps 750 mmHg 68%
    10:00 +25°C° 0 mm 1 mps 750 mmHg 63%
    11:00 +26°C° 0 mm 2 mps 750 mmHg 58%
    12:00 +27°C° 0 mm 2 mps 750 mmHg 57%
    13:00 +27°C° 0 mm 2 mps 750 mmHg 55%
    14:00 +28°C° 0 mm 2 mps 749 mmHg 53%
    15:00 +28°C° 0 mm 2 mps 749 mmHg 56%
    16:00 +27°C° 0 mm 1 mps 749 mmHg 59%
    17:00 +27°C° 0 mm 1 mps 749 mmHg 62%
    18:00 +25°C° 0.3 mm 2 mps 749 mmHg 68%
    19:00 +24°C° 0.3 mm 2 mps 749 mmHg 75%
    20:00 +21°C° 0.3 mm 2 mps 749 mmHg 82%
    21:00 +21°C° 0.5 mm 2 mps 749 mmHg 85%
    22:00 +20°C° 0.5 mm 2 mps 749 mmHg 88%
    23:00 +20°C° 0.5 mm 1 mps 749 mmHg 91%

    22 July, Monday

    Time Temperature Precipitation Wind Pressure Humidity
    00:00 +19°C° 0 mm 2 mps 749 mmHg 92%
    01:00 +19°C° 0 mm 2 mps 748 mmHg 92%
    02:00 +18°C° 0 mm 2 mps 748 mmHg 93%
    03:00 +18°C° 0 mm 2 mps 748 mmHg 94%
    04:00 +19°C° 0 mm 1 mps 748 mmHg 95%
    05:00 +19°C° 0 mm 1 mps 748 mmHg 95%
    06:00 +20°C° 0 mm 1 mps 748 mmHg 92%
    07:00 +21°C° 0 mm 1 mps 748 mmHg 88%
    08:00 +22°C° 0 mm 1 mps 748 mmHg 85%
    09:00 +24°C° 1.1 mm 1 mps 748 mmHg 80%
    10:00 +25°C° 1.1 mm 1 mps 748 mmHg 76%
    11:00 +26°C° 1.1 mm 1 mps 748 mmHg 72%
    12:00 +27°C° 0.5 mm 1 mps 748 mmHg 69%
    13:00 +27°C° 0.5 mm 1 mps 748 mmHg 65%
    14:00 +28°C° 0.5 mm 1 mps 748 mmHg 62%
    15:00 +27°C° 0.8 mm 1 mps 748 mmHg 65%
    16:00 +27°C° 0.8 mm 1 mps 748 mmHg 69%
    17:00 +26°C° 0.8 mm 2 mps 747 mmHg 72%
    18:00 +25°C° 0.6 mm 2 mps 747 mmHg 78%
    19:00 +24°C° 0.6 mm 2 mps 747 mmHg 84%
    20:00 +21°C° 0.6 mm 2 mps 747 mmHg 89%
    21:00 +20°C° 0 mm 2 mps 747 mmHg 91%
    22:00 +19°C° 0 mm 2 mps 747 mmHg 93%
    23:00 +18°C° 0 mm 2 mps 747 mmHg 95%
    Show more